Daniel Deac

Olheiro-Chefe - CFR Cluj
20 Fev 2028
Domingo
Processo

Personalidade

Adaptabilidade (6) Ambição (6) Controvérsia (16) Lealdade (16) Pressão (15) Profissionalismo (18) Espírito Esportivo (10) Temperamento (5)

Perfil

Estilo de Treinamento Democrático
Licença Continental Pro
Determinação 4
Gestão de Pessoas 13
Motivação 13
Disciplina 8
Satisfação no Trabalho
100%
Fadiga
0%
Função Olheiro-Chefe
Salário 52.2K p/s
Contrato 14.03.2030

Desempenho

Comportamento Bom
Eficácia do Treinamento
44%
Desenvolvimento do Jogador
25%
Prevenção de Lesões
35%
Implementação Tática
65%

Eventos Recentes

Avaliou um jogador agora
Participou de uma reunião de recrutamento agora
Participou de uma reunião de recrutamento agora
Recomendou um alvo de transferência agora
Recomendou um alvo de transferência agora
Avaliou um jogador agora
Avaliou um jogador agora
Avaliou um jogador agora

Monitorando agora

198
Jogador Clube Status Habilidade Confiança Observado Última observação Último voto
Nordi Mukiele Sunderland Ativo 145 / 144 40% 1 19.02.2028 -
Juninho Capixaba Bragantino Ativo 115 / 113 40% 1 19.02.2028 -
Bruno Gomes Internacional Ativo 150 / 120 40% 2 18.02.2028 -
Lamare Bogarde Reading Ativo 148 / 144 40% 1 18.02.2028 -
Florentino Luís Ipswich Town Ativo 137 / 151 40% 1 17.02.2028 -
Roméo Lavia Blackburn Rovers Ativo 150 / 157 40% 1 17.02.2028 -
Christian Krasnodar Ativo 148 / 141 40% 6 16.02.2028 -
Rodrigo Bentancur Middlesbrough Ativo 158 / 148 40% 2 16.02.2028 -
Marco Palestra Oxford United Ativo 145 / 139 40% 2 15.02.2028 -
Alexandro Bernabei Internacional Ativo 154 / 125 40% 1 15.02.2028 -
Tyler Adams Bournemouth Ativo 168 / 147 40% 1 14.02.2028 -
Dan Ballard Cardiff City Ativo 153 / 149 40% 1 13.02.2028 -
Baralhas Vitória Ativo 116 / 130 40% 1 13.02.2028 -
José Hurtado Bragantino Ativo 138 / 125 40% 1 11.02.2028 -
Gabriel Gudmundsson Leeds United Ativo 145 / 143 40% 2 10.02.2028 -
Juan Ignacio Nardoni Grêmio Ativo 138 / 133 40% 1 10.02.2028 -
Derry Murkin Derby County Ativo 142 / 123 40% 1 09.02.2028 -
Ezekiel Kwame Alladoh Philadelphia Union Ativo 103 / 140 40% 1 31.01.2028 -
Israel Reyes Olympiacos Negociando 137 / 137 68% 1 24.01.2028 Aprovar
Felipe Peña Biafore Lanús Ativo 140 / 119 40% 3 19.01.2028 -
Jake Davis Sporting Kansas City Ativo 116 / 106 40% 1 19.01.2028 -
Vicente Poggi Godoy Cruz Ativo 142 / 139 40% 2 10.01.2028 -
Brooke Norton-Cuffy Inter Miami CF Ativo 153 / 156 40% 2 10.01.2028 -
Mandla Erasmus SuperSport United Ativo 119 / 122 40% 4 31.12.2027 -
Gustavo Martins Grêmio Ativo 127 / 136 40% 1 25.12.2027 -
Mateo Mendoza Godoy Cruz Ativo 122 / 121 40% 7 23.12.2027 -
Iván Tapia Barracas Central Ativo 107 / 109 40% 1 22.12.2027 -
Emiliano Álvarez Progreso Ativo 140 / 133 40% 2 19.12.2027 -
Igor Jesus Los Angeles Football Club Ativo 125 / 116 40% 1 19.12.2027 -
Marcus Holmgren Pedersen Valerenga Ativo 128 / 131 40% 2 17.12.2027 -
Lucas Souto Defensa y Justicia Ativo 134 / 108 40% 1 17.12.2027 -
Mbekezeli Mbokazi Chicago Fire Ativo 141 / 135 40% 3 16.12.2027 -
Facundo Mura Inter Miami CF Ativo 122 / 135 40% 2 15.12.2027 -
Guillermo Enrique Huracán Ativo 133 / 123 40% 1 14.12.2027 -
Adrián Sánchez Belgrano Ativo 115 / 114 40% 3 13.12.2027 -
Santiago González Tigre Ativo 116 / 129 40% 1 13.12.2027 -
Nicolás Paz San Martín SJ Ativo 113 / 115 40% 5 10.12.2027 -
Matheus Pereira Toronto FC Ativo 112 / 127 40% 3 10.12.2027 -
Bryan Ramírez FC Cincinnati Ativo 147 / 121 40% 5 09.12.2027 -
Williams Manyama SuperSport United Ativo 136 / 114 40% 5 08.12.2027 -
Japhet Sery Larsen Philadelphia Union Ativo 124 / 117 40% 2 08.12.2027 -
Steven Alzate Atlanta United FC Ativo 136 / 127 40% 1 02.12.2027 -
Tomás Jacob Atlanta United FC Ativo 132 / 108 40% 3 01.12.2027 -
Mauricio Amaro Atlanta United FC Ativo 135 / 146 40% 2 29.11.2027 -
David Ayala Inter Miami CF Ativo 132 / 115 40% 1 29.11.2027 -
Besard Šabović Austin FC Ativo 105 / 133 40% 1 25.11.2027 -
Sondre Auklend Bodo/Glimt Ativo 117 / 119 40% 1 22.11.2027 -
Lukas Engel Real Salt Lake Ativo 120 / 117 40% 2 19.11.2027 -
Sasha Marcich Lanús Ativo 108 / 115 40% 2 19.11.2027 -
Robert Voloder New York Red Bulls Ativo 143 / 140 40% 1 17.11.2027 -
Nazareno Colombo Racing Club Ativo 113 / 137 40% 1 14.11.2027 -
Fernando Martínez Central Córdoba SdE Ativo 130 / 135 40% 1 14.11.2027 -
Gonzalo Abrego Godoy Cruz Ativo 107 / 110 40% 3 11.11.2027 -
Alexis Steimbach Gimnasia La Plata Ativo 107 / 131 40% 1 08.11.2027 -
Loïc Williams Colorado Rapids Ativo 125 / 125 40% 2 06.11.2027 -
Augusto Schott Talleres Ativo 122 / 135 40% 2 06.11.2027 -
Ho-yeon Jung Minnesota United FC Ativo 139 / 121 40% 1 04.11.2027 -
Cole Bassett Portland Timbers Ativo 105 / 121 40% 1 28.10.2027 -
Alhassan Yusuf New England Revolution Ativo 120 / 137 40% 1 27.10.2027 -
Malte Amundsen Columbus Crew Ativo 134 / 126 40% 3 24.10.2027 -
Marcelo Saracchi Houston Dynamo Ativo 122 / 128 40% 2 23.10.2027 -
Ranko Veselinović Vancouver Whitecaps Ativo 103 / 119 40% 1 23.10.2027 -
Manuel Guillén Argentinos Juniors Ativo 104 / 125 40% 1 20.10.2027 -
Lucas Halter Houston Dynamo Ativo 122 / 136 40% 1 14.10.2027 -
Miguel Navarro Colorado Rapids Ativo 124 / 109 40% 2 07.10.2027 -
Teruki Hara Nagoya Grampus Ativo 106 / 120 40% 1 04.10.2027 -
Rafael Santos St. Louis CITY SC Ativo 131 / 100 40% 1 21.09.2027 -
Samuel Gidi FC Cincinnati Ativo 115 / 139 40% 2 18.09.2027 -
Sergio Reguilón Inter Miami CF Ativo 131 / 136 40% 1 18.09.2027 -
Emeka Eneli Real Salt Lake Ativo 99 / 96 40% 1 17.09.2027 -
Lucas Agazzi Defensor Sporting Ativo 132 / 113 40% 1 15.09.2027 -
Shaq Moore FC Dallas Ativo 110 / 108 40% 1 12.09.2027 -
Hwang Hee-Chan Wolverhampton Ativo 148 / 141 40% 1 04.08.2027 -
Brian De Keersmaecker Oxford United Ativo 122 / 122 40% 1 21.06.2027 -
Harvey White Stevenage Ativo 108 / 106 40% 1 21.06.2027 -
Nathan Moriah-Welsh Mansfield Town Ativo 124 / 125 40% 1 14.06.2027 -
Will Fish Cardiff City Ativo 123 / 116 40% 1 14.06.2027 -
Fletcher Holman Swindon Town Ativo 89 / 85 40% 2 09.06.2027 -
Matvii Ponomarenko Dynamo Kyiv Ativo 124 / 132 40% 1 08.06.2027 -
Baylee Dipepa Norwich City Ativo 99 / 108 40% 1 07.06.2027 -
Luca Mazzeo Potenza Ativo 86 / 105 40% 1 06.06.2027 -
Amaury Morales Pumas UNAM Ativo 114 / 121 40% 1 06.06.2027 -
Hazeem Bakre Crawley Town Ativo 83 / 75 40% 2 05.06.2027 -
Michael Noumon Heart of Lions Ativo 83 / 98 40% 1 05.06.2027 -
Kyle Wootton Stockport County Ativo 129 / 110 40% 2 02.06.2027 -
Pablo Solari Galatasaray Perdido 128 / 128 68% 1 01.06.2027 Aprovar
Josh Tymon Swansea City Ativo 128 / 117 40% 3 29.05.2027 -
Kwame Poku Queens Park Rangers Ativo 119 / 120 40% 6 28.05.2027 -
Derensili Sanches Fernandes Huddersfield Town Ativo 120 / 125 40% 3 28.05.2027 -
Tatsuhiro Sakamoto Coventry City Ativo 121 / 118 40% 4 27.05.2027 -
Alex Lowry Wycombe Wanderers Ativo 118 / 128 40% 1 26.05.2027 -
Zeidane Inoussa Swansea City Ativo 126 / 126 40% 3 25.05.2027 -
Richard Koné Queens Park Rangers Ativo 125 / 116 40% 2 25.05.2027 -
Elijah Adebayo Luton Town Ativo 114 / 129 40% 1 25.05.2027 -
Jack Currie Oxford United Ativo 119 / 131 40% 3 24.05.2027 -
Ryoya Morishita Blackburn Rovers Ativo 120 / 128 40% 5 24.05.2027 -
David Turnbull Cardiff City Ativo 131 / 121 40% 3 23.05.2027 -
Hany Mukhtar Spezia Ativo 139 / 138 40% 5 22.05.2027 -
Thomas Henry Reggiana Ativo 116 / 113 40% 1 22.05.2027 -
Moussa Dembélé CR Belouizdad Negociando 138 / 146 40% 2 18.05.2027 -
Dom Ballard Leyton Orient Ativo 132 / 130 40% 1 18.05.2027 -
Atsuki Ito Bolton Wanderers Ativo 123 / 125 40% 1 18.05.2027 -
Domenico Berardi Sassuolo Ativo 146 / 143 40% 4 17.05.2027 -
Giuseppe Di Serio Spezia Ativo 121 / 118 40% 1 15.05.2027 -
Alex Robertson Cardiff City Ativo 130 / 110 40% 2 13.05.2027 -
Themba Ngcobo SuperSport United Ativo 102 / 121 40% 1 13.05.2027 -
Ross McCrorie Bristol City Ativo 130 / 125 40% 2 12.05.2027 -
Jacques Ekomié Wrexham Ativo 124 / 132 40% 1 07.05.2027 -
Jack Diamond Stockport County Ativo 129 / 122 40% 4 06.05.2027 -
Mikey Johnston West Bromwich Albion Ativo 121 / 120 40% 1 02.05.2027 -
Marc Bola Watford Ativo 122 / 113 40% 1 01.05.2027 -
Oswin Appollis Orlando Pirates Ativo 113 / 140 40% 3 29.04.2027 -
John Okoye Ebuka Ittihad Ativo 137 / 100 40% 1 27.04.2027 -
Cian Ashford Cardiff City Ativo 129 / 116 40% 2 25.04.2027 -
Paris Maghoma Norwich City Ativo 114 / 119 40% 1 21.04.2027 -
Idrissa Touré Monza Ativo 143 / 132 40% 1 21.04.2027 -
Marcelo Allende Mamelodi Sundowns Ativo 140 / 126 40% 7 17.04.2027 -
Aaron Collins Milton Keynes Dons Ativo 113 / 113 40% 1 17.04.2027 -
Isaiah Jones Luton Town Ativo 133 / 115 40% 6 13.04.2027 -
Zak Swanson Bradford City Ativo 117 / 110 40% 1 10.04.2027 -
Ryan Hedges Derby County Ativo 111 / 108 40% 1 08.04.2027 -
Lebohang Maboe Kaizer Chiefs Ativo 122 / 99 40% 1 04.04.2027 -
Hélio Varela Maccabi Tel Aviv Ativo 133 / 103 40% 1 31.03.2027 -
Marquinhos Spartak Moscow Ativo 139 / 129 40% 7 29.03.2027 -
Othmane Maamma Watford Ativo 125 / 118 40% 6 29.03.2027 -
Harry Leonard Peterborough United Ativo 100 / 113 40% 2 27.03.2027 -
Eom Ji-Sung Swansea City Ativo 105 / 106 40% 1 27.03.2027 -
Sam Bell Bristol City Ativo 123 / 117 40% 1 26.03.2027 -
Lee Bonis Chesterfield Ativo 104 / 104 40% 1 25.03.2027 -
Petar Stanić Ludogorets Ativo 134 / 125 40% 3 24.03.2027 -
Patrick Maswanganyi Orlando Pirates Ativo 100 / 113 40% 1 23.03.2027 -
Niall Ennis Blackpool Ativo 106 / 122 40% 1 21.03.2027 -
Promise Omochere Bristol Rovers Ativo 104 / 101 40% 1 21.03.2027 -
Caolan Boyd-Munce Wycombe Wanderers Ativo 118 / 122 40% 1 19.03.2027 -
Marquinhos APOEL Ativo 143 / 139 40% 1 17.03.2027 -
Tyreece Campbell Charlton Athletic Ativo 108 / 116 40% 1 15.03.2027 -
Mees Rijks Bristol Rovers Ativo 112 / 99 40% 1 15.03.2027 -
Kelly Saravanan Salford City Ativo 110 / 126 40% 1 15.03.2027 -
Robert Mizo Ashanti Gold Ativo 92 / 100 40% 2 13.03.2027 -
Kwame Opoku Asante Kotoko Ativo 106 / 98 40% 1 09.03.2027 -
Tshepang Moremi Orlando Pirates Ativo 101 / 112 40% 1 09.03.2027 -
Josh Murphy Portsmouth Ativo 132 / 120 40% 1 08.03.2027 -
Xeber Alkain Karpaty Ativo 135 / 122 40% 2 04.02.2027 -
Kristoffer Lund Birmingham Ativo 131 / 126 40% 1 01.02.2027 -
Ollie Tanner Cardiff City Ativo 106 / 104 40% 1 01.02.2027 -
Suleiman Camara Slovan Bratislava Ativo 131 / 111 40% 5 30.01.2027 -
Darlin Yongwa Norwich City Ativo 134 / 120 40% 1 30.01.2027 -
Mathias Jørgensen Blackburn Rovers Ativo 131 / 124 40% 1 29.01.2027 -
José Martínes CSKA 1948 Ativo 104 / 112 40% 1 28.01.2027 -
Cédric Don Maccabi Haifa Ativo 124 / 144 40% 1 23.01.2027 -
Daniel Kyerewaa Reading Ativo 107 / 117 40% 1 22.01.2027 -
Stanley Mills Oxford United Ativo 134 / 132 40% 1 19.01.2027 -
Assad Al Hamlawi Universitatea Craiova Ativo 107 / 132 40% 1 12.01.2027 -
Stanislav Agkatsev Sunderland Negociando 132 / 133 66% 1 01.01.2027 Aprovar
Marius Puscas Hajduk Split Ativo 151 / 129 40% 3 30.12.2026 -
Mduduzi Shabalala Kaizer Chiefs Ativo 115 / 99 40% 1 25.12.2026 -
Rubens Dinamo Moscow Ativo 127 / 120 40% 1 23.12.2026 -
Ştefan Baiaram Universitatea Craiova Ativo 129 / 115 40% 5 22.12.2026 -
Pedrinho Shakhtar Ativo 129 / 135 40% 3 21.12.2026 -
Emmanuel Boateng Hapoel Tel Aviv Ativo 123 / 121 40% 1 17.12.2026 -
Batxi Krasnodar Ativo 134 / 125 40% 1 15.12.2026 -
Lewis Morgan SuperSport United Ativo 138 / 137 40% 1 14.12.2026 -
Reda Khadra Qarabag Ativo 128 / 122 40% 4 13.12.2026 -
Angelo Gattermayer Wolfsberger AC Ativo 113 / 128 40% 4 11.12.2026 -
Alberto Soro Dinamo Bucharest Ativo 120 / 124 40% 1 08.12.2026 -
Marlon Gomes Shakhtar Ativo 146 / 143 40% 4 03.12.2026 -
Ruben van Bommel Ferencvaros Ativo 133 / 124 40% 2 01.12.2026 -
Alexandru Musi Voluntari Ativo 112 / 111 40% 1 28.11.2026 Mais informações
Ofri Arad FCSB Ativo 117 / 117 40% 1 26.11.2026 -
Alan Lescano Argentinos Juniors Ativo 132 / 146 40% 1 23.11.2026 -
Márcio Mendes Pandurii Ativo 120 / 127 40% 2 22.11.2026 -
Cătălin Cîrjan Dinamo Bucharest Ativo 119 / 122 40% 2 22.11.2026 -
Darius Olaru FCSB Ativo 134 / 107 40% 5 21.11.2026 -
Francisco González Metilli Belgrano Ativo 121 / 116 40% 1 21.11.2026 -
Alexandru Cicâldău Universitatea Craiova Ativo 131 / 125 40% 1 11.11.2026 -
Daniel Armstrong Dinamo Bucharest Ativo 109 / 130 40% 1 07.11.2026 -
Breel Embolo Atlanta United FC Ativo 146 / 134 40% 1 06.11.2026 -
Bénie Traoré New York City Ativo 141 / 147 40% 1 04.11.2026 -
Tobias Gulliksen Rapid Wien Ativo 131 / 131 40% 1 29.10.2026 -
Peter Christiansen Viking Ativo 139 / 119 40% 1 24.10.2026 -
Luciano Gondou CSKA Moscow Ativo 139 / 135 40% 1 20.10.2026 -
David Miculescu FCSB Ativo 107 / 110 40% 1 10.10.2026 -
Fredrik Bjørkan Bodo/Glimt Ativo 115 / 136 40% 1 09.10.2026 -
Ammar Ramadan DAC Dunajska Streda Ativo 126 / 114 40% 1 08.10.2026 -
Conrad Wallem Austria Wien Ativo 134 / 127 40% 2 01.10.2026 -
Franco Cristaldo Talleres Ativo 146 / 143 40% 2 29.09.2026 -
Jonathan Levi Ferencvaros Ativo 128 / 115 40% 2 28.09.2026 -
Antonio Galeano Remo Stars Ativo 133 / 107 40% 1 26.09.2026 -
George Puşcaş Dinamo Bucharest Ativo 113 / 122 40% 2 22.09.2026 -
Jaïro Riedewald Sheffield United Ativo 129 / 107 40% 1 20.09.2026 -
Carlos Mora Universitatea Craiova Ativo 133 / 133 40% 1 11.09.2026 -
Luka Kurtovic NK Domzale Ativo 120 / 117 40% 1 04.09.2026 -
Djibril Diaw Botosani Ativo 113 / 103 51% 1 31.08.2026 -
Dmitry Barinov CSKA Moscow Ativo 127 / 137 40% 1 31.08.2026 -
Kings Kangwa Panathinaikos Ativo 139 / 148 40% 1 04.08.2026 -
Tyrese Campbell Sheffield United Ativo 120 / 114 40% 1 02.08.2026 -
Diego Villares Deportivo La Coruña Ativo 118 / 111 40% 1 02.08.2026 -
Antonio Blanco Alavés Ativo 155 / 134 40% 1 02.08.2026 -